Location: Lawrence Hall of Science
(37.8785°N, 122.2415°W)
Time: 20:48:57
(UTC-07:00)

Cosmos 1461 - Visible Passes

Search period start: 16 April 2014 00:00
Search period end: 26 April 2014 00:00
Orbit: 532 x 676 km, 65.0° (Epoch: 16 April)

Date Brightness Start Highest point End Pass type
(mag) Time Alt. Az. Time Alt. Az. Time Alt. Az.
16 Apr 5.5 04:49:10 10° SSE 04:52:25 19° ESE 04:55:35 10° ENE visible
17 Apr 4.4 05:00:33 11° S 05:04:39 37° ESE 05:08:45 10° NE visible
18 Apr 3.2 05:13:17 16° SSW 05:16:58 73° ESE 05:21:23 10° NE visible
19 Apr 5.6 03:49:04 13° SE 03:50:16 14° ESE 03:52:30 10° ENE visible
19 Apr 3.2 05:25:54 17° SW 05:29:22 57° WNW 05:33:42 10° NNE visible
20 Apr 4.7 04:01:34 25° SE 04:02:25 26° ESE 04:06:08 10° NE visible
20 Apr 4.1 05:38:24 13° WSW 05:41:50 31° NW 05:45:45 10° N visible
21 Apr 3.6 04:13:57 47° SSE 04:14:38 51° ESE 04:18:56 10° NE visible
21 Apr 4.8 05:51:20 10° W 05:54:24 18° NW 05:57:25 10° N visible
22 Apr 2.9 04:26:15 63° SW 04:26:56 80° WNW 04:31:21 10° NNE visible
23 Apr 5.6 03:01:39 16° E 03:01:39 16° E 03:03:12 10° ENE visible
23 Apr 3.6 04:38:27 37° W 04:39:18 41° NW 04:43:28 10° NNE visible
24 Apr 4.9 03:13:47 27° ENE 03:13:47 27° ENE 03:16:15 10° NE visible
24 Apr 4.5 04:50:35 21° WNW 04:51:46 23° NW 04:55:18 10° N visible
25 Apr 4.2 03:25:50 42° NE 03:25:50 42° NE 03:28:47 10° NE visible
25 Apr 5.2 05:02:38 12° WNW 05:04:21 14° NW 05:06:35 10° NNW visible
